Flag for U.S.A. Weather past 2 weeks in Vancouver, Washington, U.S.A.

Now
49 °F

Clear.


Feels Like: 48 °F
Forecast: 49 / 65 °F
Wind: 3 mph from Northwest

Location: Vancouver - Pearson Airpark


UV Index: 0 (Low)

Visibility: 10 mi


Pressure: 30.10 "Hg

Humidity: 74%

Dew point: 41 °F

Location of VancouverLocation

Historic Weather in Vancouver

°F

Vancouver temperature yesterday

Maximum temperature yesterday: 64 °F (at 3:53 PM)
Minimum temperature yesterday: 42 °F (at 6:53 AM)
Average temperature yesterday: 54 °F

Past Weeks' High & Low Weather Summary

 TemperatureHumidityPressure
High74 °F (Apr 7, 4:53 PM)97% (Apr 7, 4:53 AM)30.31 "Hg (Apr 7, 4:53 AM)
Low37 °F (Apr 13, 5:53 AM)19% (Apr 13, 5:53 PM)29.84 "Hg (Apr 17, 4:53 PM)
Average54 °F66%30.13 "Hg
* Reported Apr 6 1:53 AM — Apr 21 1:53 AM, Vancouver, Weather by CustomWeather, © 2014

Note: Actual official high and low records may vary slightly from our data, if they occured in-between our weather recording intervals... More about our weather records

Advertising

Historic Weather Conditions — Data for Previous 24 hours

 ConditionsComfort  
Time TempWeatherWind HumidityBarometerVisibility
1:53 AM
Apr 21
50 °FClear.3 mph71%30.11 "Hg10 mi
12:53 AM53 °FClear.3 mph64%30.12 "Hg10 mi
11:53 PM
Apr 20
53 °FClear.No wind64%30.12 "Hg10 mi
10:53 PM55 °FClear.3 mph62%30.14 "Hg10 mi
9:53 PM57 °FClear.6 mph60%30.14 "Hg10 mi
8:53 PM53 °FSunny.No wind72%30.14 "Hg10 mi
7:53 PM60 °FSunny.No wind56%30.14 "Hg10 mi
6:53 PM62 °FSunny.No wind48%30.14 "Hg10 mi
5:53 PM63 °FSunny.No wind45%30.16 "Hg10 mi
4:53 PM63 °FSunny.3 mph45%30.17 "Hg10 mi
3:53 PM64 °FSunny.3 mph45%30.18 "Hg10 mi
2:53 PM61 °FSunny.3 mph48%30.19 "Hg10 mi
1:53 PM61 °FSunny.5 mph48%30.22 "Hg10 mi
12:53 PM60 °FSunny.No wind49%30.25 "Hg10 mi
11:53 AM57 °FPassing clouds.3 mph58%30.26 "Hg10 mi
10:53 AM55 °FPassing clouds.6 mph64%30.28 "Hg10 mi
9:53 AM53 °FPassing clouds.5 mph69%30.29 "Hg10 mi
8:53 AM49 °FPassing clouds.No wind84%30.30 "Hg10 mi
7:53 AM47 °FPartly sunny.No wind86%30.30 "Hg10 mi
6:53 AM42 °FPassing clouds.No wind92%30.29 "Hg9 mi
5:53 AM44 °FPassing clouds.No wind89%30.29 "Hg10 mi
4:53 AM45 °FOvercast.No wind86%30.29 "Hg10 mi
3:53 AM43 °FOvercast.No wind86%30.29 "Hg10 mi
Weather by CustomWeather, © 2014

See weather overview